Location: Tucson
(32.2217°N, 110.9265°W)
Time: 16:58:25
(UTC-07:00)

Transit 2A Rocket - Pass Details

Date: 10 August 2022
Orbit: 593 x 908 km, 66.7° (Epoch: 26 September)

Event Time Altitude Azimuth Distance (km) Brightness Sun altitude
Rises 05:10:24 0° 322° (NW) 2,897 7.9 -7.6°
Reaches altitude 10° 05:12:45 10° 313° (NW) 2,021 7.0 -7.1°
Maximum altitude 05:16:50 34° 249° (WSW) 1,101 5.3 -6.3°
Drops below altitude 10° 05:21:14 10° 185° (S) 2,167 7.1 -5.5°
Sets 05:23:50 0° 176° (S) 3,140 8.0 -5.0°
